Regional Weather Roundup
Issued by NWS

Home | Current Version | Previous Version | Text Only | Print | Product List | Glossary Off
Versions: 1 2 3 4 5 6 7 8 9 10 11 12 13 14 15 16 17 18 19 20 21 22 23 24 25 26 27 28 29 30 31 32 33 34 35 36 37 38 39 40 41 42 43 44 45 46 47 48 49 50

000
ASUS45 KABQ 270701
RWRNM
NEW MEXICO REGIONAL WEATHER ROUNDUP
NATIONAL WEATHER SERVICE ALBUQUERQUE NM
100 AM MDT THU APR 27 2017

NOTE: "FAIR" MEANS FEW OR NO CLOUDS BELOW 12,000 FEET AGL WITH NO
       SIGNIFICANT WEATHER OR OBSTRUCTIONS TO VISION.

      THIS PRODUCT IS RELEASED AS TWO VERSIONS.  ONE VERSION NEAR
      THE TOP OF THE HOUR CONTAINING PRELIMINARY DATA FROM ALBUQUERQUE
      AND OTHER STATIONS.  A FINAL VERSION WITH ADDITIONAL DATA IS
      ISSUED ABOUT 10 MINUTES AFTER THE HOUR.

NMZ501-503-504-510>518-270800-
NORTHWEST PLATEAU/NORTHCENTRAL MOUNTAINS

CITY           SKY/WX    TMP DP  RH WIND       PRES   REMARKS
FARMINGTON     CLOUDY    48  33  56 N9        29.77R
LOS ALAMOS     FAIR      47  17  30 CALM      29.83F
SANTA FE       MOCLDY    45  26  47 NW6       29.79S
TAOS             N/A     43  21  42 CALM      29.81F
ANGEL FIRE     CLOUDY    37  24  59 E5        29.84F WCI  34

$$
NMZ402-403-502-505>509-270800-
WESTCENTRAL MOUNTAINS/SOUTHWEST MOUNTAINS

CITY           SKY/WX    TMP DP  RH WIND       PRES   REMARKS
GALLUP         MOCLDY    52  23  32 SW15      29.83S
GRANTS         FAIR      52  23  31 W12G18    29.85R
SILVER CITY    FAIR      53  21  28 W3        29.88F

$$
NMZ407-409-411-412-270800-
SOUTHERN DESERTS

CITY           SKY/WX    TMP DP  RH WIND       PRES   REMARKS
DEMING         FAIR      64  22  20 W15       29.83S
LAS CRUCES     FAIR      65  18  16 W26G36    29.81F
HOLLOMAN AFB   FAIR      62  18  18 SW12      29.78F
ALAMOGORDO     FAIR      59  21  23 SE8       29.78S
T OR C         FAIR      62  19  19 SW7       29.77F

$$
NMZ519>523-270800-
CENTRAL VALLEYS/CENTRAL HIGHLANDS

CITY           SKY/WX    TMP DP  RH WIND       PRES   REMARKS
ALBUQUERQUE    FAIR      52  32  46 SE7       29.77F
MORIARTY ARPT  CLOUDY    48  31  53 CALM      29.81F
CLINES CORNERS NOT AVBL
BELEN          FAIR      51  17  26 SW8       29.79S
SOCORRO        FAIR      55  16  20 NW3       29.78S

$$
NMZ524>526-539-540-270800-
SOUTHCENTRAL MOUNTAINS

CITY           SKY/WX    TMP DP  RH WIND       PRES   REMARKS
RUIDOSO        NOT AVBL

$$
NMZ527>531-270800-
NORTHEAST HIGHLANDS/NORTHEAST PLAINS

CITY           SKY/WX    TMP DP  RH WIND       PRES   REMARKS
LAS VEGAS      MOCLDY    42  19  39 S12       29.78F
RATON          FAIR      40  30  67 W8        29.76S WCI  34
CLAYTON        FAIR      43  33  68 SW5       29.75F

$$
NMZ532>537-270800-
EASTCENTRAL PLAINS

CITY           SKY/WX    TMP DP  RH WIND       PRES   REMARKS
SANTA ROSA     FAIR      52  24  33 CALM      29.74S
TUCUMCARI      CLOUDY    52  41  66 N9        29.70F
CANNON AFB     MOCLDY    53  36  52 E7        29.75F
CLOVIS AIRPORT CLOUDY    50  34  53 E8        29.77S

$$
NMZ028-029-538-270800-
SOUTHEAST PLAINS

CITY           SKY/WX    TMP DP  RH WIND       PRES   REMARKS
ROSWELL        FAIR      57  26  30 S14         N/A
ARTESIA        FAIR      52  27  37 SE6       29.72F
CARLSBAD       FAIR      59  23  25 S13       29.71F
HOBBS          FAIR      48  32  53 S6        29.76F


$$



USA.gov is the U.S. government's official web portal to all federal, state and local government web resources and services.